SVA1673 OERK-OEDF

Flight info

Callsign SVA1673
Flight time 0h 42m
Altitude 29000
Route ALTAV1E ALTAV H976 MUSRI L604 UMENA UMENA2J
Aircraft A333/H-SDE3GHIJ2J3J5M1RVWXY/LB2D1

Departure

Time 2026-04-26 22:07
Airport King Khalid International Airport (OERK)

Arrival

Time 2026-04-26 22:49
Airport King Fahd International Airport (OEDF)
Time Latitude Longitude Altitude Speed Heading
2026-04-26 21:20 24.96648 46.70090 2041 ft 0 kts 240°
2026-04-26 21:55 24.96659 46.70113 2042 ft 4 kts 248°
2026-04-26 21:55 24.96667 46.70141 2035 ft 4 kts 261°
2026-04-26 21:56 24.96668 46.70169 2033 ft 4 kts 283°
2026-04-26 21:56 24.96658 46.70192 2043 ft 2 kts 329°
2026-04-26 21:56 24.96653 46.70195 2043 ft 0 kts 330°
2026-04-26 21:59 24.96663 46.70189 2036 ft 3 kts 330°
2026-04-26 21:59 24.96692 46.70170 2035 ft 7 kts 330°
2026-04-26 22:00 24.96742 46.70138 2041 ft 10 kts 330°
2026-04-26 22:00 24.96809 46.70096 2041 ft 12 kts 330°
2026-04-26 22:00 24.96878 46.70082 2039 ft 7 kts 21°
2026-04-26 22:00 24.96908 46.70117 2042 ft 8 kts 56°
2026-04-26 22:01 24.96945 46.70185 2037 ft 13 kts 59°
2026-04-26 22:01 24.96998 46.70269 2042 ft 9 kts 36°
2026-04-26 22:01 24.97039 46.70266 2041 ft 8 kts 340°
2026-04-26 22:01 24.97107 46.70224 2041 ft 15 kts 329°
2026-04-26 22:02 24.97224 46.70150 2041 ft 23 kts 330°
2026-04-26 22:02 24.97385 46.70049 2041 ft 30 kts 330°
2026-04-26 22:02 24.97486 46.69985 2039 ft 3 kts 329°
2026-04-26 22:02 24.97527 46.69976 2033 ft 6 kts
2026-04-26 22:03 24.97569 46.70019 2042 ft 8 kts 58°
2026-04-26 22:03 24.97593 46.70062 2042 ft 0 kts 58°
2026-04-26 22:06 24.97602 46.70078 2042 ft 9 kts 58°
2026-04-26 22:06 24.97652 46.70181 2042 ft 19 kts 72°
2026-04-26 22:06 24.97630 46.70245 2039 ft 10 kts 152°
2026-04-26 22:06 24.97397 46.70384 2040 ft 78 kts 151°
2026-04-26 22:07 24.96679 46.70837 2040 ft 158 kts 150°
2026-04-26 22:07 24.95524 46.71568 2272 ft 217 kts 150°
2026-04-26 22:07 24.94090 46.72478 2789 ft 258 kts 150°
2026-04-26 22:07 24.92527 46.73630 3536 ft 284 kts 141°
2026-04-26 22:08 24.91164 46.75262 4585 ft 292 kts 124°
2026-04-26 22:08 24.90235 46.77092 6556 ft 262 kts 114°
2026-04-26 22:08 24.89713 46.78968 8120 ft 253 kts 97°
2026-04-26 22:08 24.89774 46.80851 9610 ft 243 kts 76°
2026-04-26 22:09 24.90437 46.82504 11035 ft 232 kts 54°
2026-04-26 22:09 24.91531 46.83744 12361 ft 221 kts 38°
2026-04-26 22:09 24.92797 46.84712 13325 ft 226 kts 31°
2026-04-26 22:09 24.94226 46.85585 13710 ft 247 kts 27°
2026-04-26 22:10 24.95836 46.86462 14027 ft 269 kts 26°
2026-04-26 22:10 24.97589 46.87395 14333 ft 291 kts 26°
2026-04-26 22:10 24.99466 46.88420 14655 ft 311 kts 27°
2026-04-26 22:10 25.01456 46.89543 14963 ft 331 kts 27°
2026-04-26 22:11 25.03556 46.90762 15273 ft 350 kts 28°
2026-04-26 22:11 25.05751 46.92058 15718 ft 364 kts 28°
2026-04-26 22:11 25.08002 46.93399 16373 ft 370 kts 28°
2026-04-26 22:11 25.10239 46.94735 17037 ft 375 kts 28°
2026-04-26 22:12 25.12545 46.96113 17727 ft 379 kts 28°
2026-04-26 22:12 25.14883 46.97509 18397 ft 384 kts 28°
2026-04-26 22:12 25.17245 46.98917 19051 ft 387 kts 28°
2026-04-26 22:12 25.19613 47.00329 19694 ft 391 kts 28°
2026-04-26 22:13 25.22021 47.01764 20322 ft 395 kts 28°
2026-04-26 22:13 25.24446 47.03210 20915 ft 399 kts 28°
2026-04-26 22:13 25.26900 47.04673 21501 ft 402 kts 28°
2026-04-26 22:13 25.29369 47.06146 22067 ft 406 kts 28°
2026-04-26 22:14 25.31864 47.07635 22617 ft 409 kts 28°
2026-04-26 22:14 25.34382 47.09139 23148 ft 413 kts 28°
2026-04-26 22:14 25.36918 47.10654 23669 ft 416 kts 28°
2026-04-26 22:14 25.39472 47.12181 24170 ft 419 kts 28°
2026-04-26 22:15 25.42050 47.13723 24654 ft 423 kts 28°
2026-04-26 22:15 25.44642 47.15275 25133 ft 426 kts 28°
2026-04-26 22:15 25.47256 47.16840 25578 ft 429 kts 28°
2026-04-26 22:15 25.49886 47.18415 26021 ft 432 kts 28°
2026-04-26 22:16 25.52536 47.20003 26461 ft 435 kts 28°
2026-04-26 22:16 25.55206 47.21604 26869 ft 438 kts 28°
2026-04-26 22:16 25.57889 47.23214 26986 ft 439 kts 28°
2026-04-26 22:16 25.60550 47.24811 26993 ft 439 kts 28°
2026-04-26 22:17 25.63240 47.26426 26993 ft 440 kts 28°
2026-04-26 22:17 25.65927 47.28041 26993 ft 440 kts 28°
2026-04-26 22:17 25.68616 47.29658 26993 ft 440 kts 28°
2026-04-26 22:17 25.71281 47.31261 26993 ft 440 kts 28°
2026-04-26 22:18 25.73965 47.32880 26993 ft 440 kts 29°
2026-04-26 22:18 25.76620 47.34564 26994 ft 440 kts 30°
2026-04-26 22:18 25.79244 47.36305 26993 ft 440 kts 31°
2026-04-26 22:18 25.81814 47.38049 26993 ft 440 kts 31°
2026-04-26 22:19 25.84418 47.39828 26993 ft 439 kts 31°
2026-04-26 22:19 25.87020 47.41604 26993 ft 439 kts 31°
2026-04-26 22:19 25.89629 47.43379 26993 ft 439 kts 31°
2026-04-26 22:19 25.92223 47.45138 26995 ft 439 kts 31°
2026-04-26 22:20 25.94830 47.46902 26993 ft 439 kts 31°
2026-04-26 22:20 25.96558 47.48069 26993 ft 439 kts 31°
2026-04-26 22:20 26.00051 47.50429 26993 ft 439 kts 31°
2026-04-26 22:20 26.02653 47.52187 26994 ft 439 kts 31°
2026-04-26 22:21 26.05267 47.53954 26993 ft 439 kts 31°
2026-04-26 22:21 26.07874 47.55718 26993 ft 439 kts 31°
2026-04-26 22:21 26.10482 47.57484 26994 ft 439 kts 31°
2026-04-26 22:21 26.13082 47.59245 26993 ft 439 kts 31°
2026-04-26 22:22 26.15690 47.61014 26993 ft 439 kts 31°
2026-04-26 22:22 26.18300 47.62784 26993 ft 439 kts 31°
2026-04-26 22:22 26.20907 47.64553 26993 ft 439 kts 31°
2026-04-26 22:22 26.23436 47.66423 26993 ft 439 kts 38°
2026-04-26 22:23 26.25696 47.68703 26993 ft 438 kts 47°
2026-04-26 22:23 26.27543 47.71394 26993 ft 438 kts 58°
2026-04-26 22:23 26.28875 47.74443 26993 ft 438 kts 70°
2026-04-26 22:23 26.29758 47.77629 26994 ft 438 kts 75°
2026-04-26 22:24 26.30503 47.80922 26993 ft 438 kts 77°
2026-04-26 22:24 26.31168 47.84240 26993 ft 439 kts 78°
2026-04-26 22:24 26.31803 47.87565 26994 ft 439 kts 78°
2026-04-26 22:24 26.32415 47.90780 26993 ft 439 kts 78°
2026-04-26 22:25 26.33059 47.94105 26993 ft 438 kts 78°
2026-04-26 22:25 26.33714 47.97426 26994 ft 438 kts 77°
2026-04-26 22:25 26.34377 48.00745 26994 ft 438 kts 77°
2026-04-26 22:25 26.35038 48.04017 26994 ft 438 kts 77°
2026-04-26 22:26 26.35710 48.07332 26993 ft 438 kts 77°
2026-04-26 22:26 26.36383 48.10647 26993 ft 438 kts 77°
2026-04-26 22:26 26.37055 48.13963 26993 ft 438 kts 77°
2026-04-26 22:26 26.37593 48.16619 26993 ft 438 kts 77°
2026-04-26 22:27 26.38262 48.19934 26993 ft 438 kts 77°
2026-04-26 22:27 26.38931 48.23253 26912 ft 438 kts 77°
2026-04-26 22:27 26.39598 48.26567 26698 ft 437 kts 77°
2026-04-26 22:27 26.40258 48.29848 26463 ft 435 kts 77°
2026-04-26 22:28 26.40918 48.33133 26214 ft 433 kts 77°
2026-04-26 22:28 26.41549 48.36283 25971 ft 431 kts 77°
2026-04-26 22:28 26.42202 48.39542 25721 ft 430 kts 77°
2026-04-26 22:28 26.42800 48.42532 25455 ft 424 kts 77°
2026-04-26 22:29 26.43437 48.45717 24999 ft 419 kts 77°
2026-04-26 22:29 26.44067 48.48875 24479 ft 416 kts 77°
2026-04-26 22:29 26.44692 48.52013 23953 ft 413 kts 77°
2026-04-26 22:29 26.45290 48.55014 23474 ft 410 kts 77°
2026-04-26 22:30 26.45901 48.58089 22968 ft 400 kts 77°
2026-04-26 22:30 26.46490 48.61050 22470 ft 383 kts 77°
2026-04-26 22:30 26.47055 48.63913 22007 ft 376 kts 78°
2026-04-26 22:30 26.47376 48.66563 21580 ft 377 kts 89°
2026-04-26 22:31 26.47233 48.69482 21107 ft 376 kts 96°
2026-04-26 22:31 26.46915 48.72376 20628 ft 374 kts 97°
2026-04-26 22:31 26.46572 48.75241 20158 ft 371 kts 97°
2026-04-26 22:31 26.46264 48.77812 19727 ft 369 kts 97°
2026-04-26 22:32 26.45931 48.80634 19274 ft 366 kts 97°
2026-04-26 22:32 26.45601 48.83442 18799 ft 363 kts 97°
2026-04-26 22:32 26.45275 48.86230 18330 ft 361 kts 97°
2026-04-26 22:32 26.44964 48.88903 17892 ft 358 kts 97°
2026-04-26 22:33 26.44643 48.91651 17424 ft 356 kts 97°
2026-04-26 22:33 26.44008 48.97085 16486 ft 351 kts 97°
2026-04-26 22:33 26.43733 48.99442 16080 ft 348 kts 97°
2026-04-26 22:34 26.43420 49.02114 15611 ft 346 kts 97°
2026-04-26 22:34 26.43213 49.03873 15297 ft 344 kts 97°
2026-04-26 22:34 26.42904 49.06504 14825 ft 342 kts 97°
2026-04-26 22:34 26.42595 49.09130 14378 ft 339 kts 97°
2026-04-26 22:35 26.42313 49.11523 13962 ft 337 kts 97°
2026-04-26 22:35 26.42008 49.14108 13501 ft 335 kts 97°
2026-04-26 22:35 26.41725 49.16505 13068 ft 333 kts 97°
2026-04-26 22:35 26.41413 49.19140 12606 ft 331 kts 97°
2026-04-26 22:36 26.41134 49.21494 12199 ft 329 kts 97°
2026-04-26 22:36 26.40835 49.24014 11754 ft 326 kts 97°
2026-04-26 22:36 26.40538 49.26511 11305 ft 325 kts 97°
2026-04-26 22:36 26.40236 49.29063 11004 ft 338 kts 97°
2026-04-26 22:37 26.39944 49.31536 10647 ft 341 kts 97°
2026-04-26 22:37 26.39636 49.34156 10355 ft 340 kts 97°
2026-04-26 22:37 26.39337 49.36690 10169 ft 317 kts 97°
2026-04-26 22:37 26.39055 49.39048 9938 ft 298 kts 97°
2026-04-26 22:38 26.38792 49.41228 9581 ft 295 kts 97°
2026-04-26 22:38 26.38518 49.43490 9187 ft 293 kts 97°
2026-04-26 22:38 26.38246 49.45730 8831 ft 290 kts 97°
2026-04-26 22:38 26.37977 49.47948 8496 ft 287 kts 97°
2026-04-26 22:39 26.37714 49.50116 8179 ft 284 kts 97°
2026-04-26 22:39 26.37449 49.52295 7874 ft 283 kts 97°
2026-04-26 22:39 26.37174 49.54465 7579 ft 281 kts 100°
2026-04-26 22:39 26.36583 49.56479 7386 ft 266 kts 118°
2026-04-26 22:40 26.35607 49.58128 7118 ft 247 kts 127°
2026-04-26 22:40 26.34594 49.59600 6822 ft 233 kts 128°
2026-04-26 22:40 26.33598 49.61017 6564 ft 233 kts 128°
2026-04-26 22:40 26.32600 49.62442 6309 ft 232 kts 128°
2026-04-26 22:41 26.31615 49.63855 6053 ft 231 kts 128°
2026-04-26 22:41 26.30630 49.65272 5796 ft 231 kts 128°
2026-04-26 22:41 26.29652 49.66682 5547 ft 230 kts 128°
2026-04-26 22:41 26.28675 49.68090 5291 ft 229 kts 128°
2026-04-26 22:42 26.27713 49.69480 5031 ft 228 kts 128°
2026-04-26 22:42 26.26744 49.70877 4787 ft 227 kts 128°
2026-04-26 22:42 26.25781 49.72268 4556 ft 227 kts 127°
2026-04-26 22:42 26.24971 49.73766 4253 ft 226 kts 109°
2026-04-26 22:43 26.24851 49.75461 3946 ft 224 kts 81°
2026-04-26 22:43 26.25193 49.77151 3693 ft 224 kts 75°
2026-04-26 22:43 26.25616 49.78815 3452 ft 223 kts 74°
2026-04-26 22:43 26.26042 49.80471 3200 ft 222 kts 74°
2026-04-26 22:44 26.26488 49.82075 3031 ft 222 kts 68°
2026-04-26 22:44 26.27364 49.83467 2990 ft 221 kts 39°
2026-04-26 22:44 26.28757 49.84131 2991 ft 220 kts
2026-04-26 22:44 26.30275 49.83953 2997 ft 220 kts 347°
2026-04-26 22:45 26.31600 49.83556 2991 ft 200 kts 344°
2026-04-26 22:45 26.32887 49.83135 2834 ft 187 kts 343°
2026-04-26 22:45 26.34101 49.82741 2633 ft 176 kts 344°
2026-04-26 22:45 26.35240 49.82378 2421 ft 164 kts 344°
2026-04-26 22:46 26.36319 49.82025 2008 ft 163 kts 344°
2026-04-26 22:46 26.37410 49.81705 1591 ft 162 kts 345°
2026-04-26 22:46 26.38475 49.81388 1300 ft 153 kts 344°
2026-04-26 22:46 26.39465 49.81074 1072 ft 143 kts 343°
2026-04-26 22:47 26.40360 49.80777 914 ft 133 kts 344°
2026-04-26 22:47 26.41250 49.80498 771 ft 133 kts 345°
2026-04-26 22:47 26.42144 49.80231 673 ft 133 kts 345°
2026-04-26 22:47 26.42865 49.80000 583 ft 133 kts 343°
2026-04-26 22:48 26.43747 49.79721 414 ft 134 kts 345°
2026-04-26 22:48 26.44639 49.79445 238 ft 133 kts 344°
2026-04-26 22:48 26.45528 49.79168 101 ft 133 kts 344°
2026-04-26 22:48 26.46395 49.78899 85 ft 127 kts 345°
2026-04-26 22:49 26.47080 49.78689 83 ft 64 kts 345°
2026-04-26 22:49 26.47199 49.78652 84 ft 61 kts 345°
2026-04-26 22:49 26.47554 49.78553 84 ft 42 kts 358°
2026-04-26 22:49 26.47830 49.78612 81 ft 39 kts 15°
2026-04-26 22:50 26.48075 49.78702 82 ft 33 kts 13°
2026-04-26 22:50 26.48233 49.78655 84 ft 23 kts 340°
2026-04-26 22:50 26.48280 49.78640 81 ft 22 kts 349°
2026-04-26 22:50 26.48406 49.78603 85 ft 21 kts 342°
2026-04-26 22:51 26.48541 49.78561 85 ft 21 kts 345°
2026-04-26 22:51 26.48687 49.78516 82 ft 22 kts 343°
2026-04-26 22:51 26.48706 49.78510 85 ft 0 kts 343°
2026-04-26 22:52 26.48709 49.78509 84 ft 0 kts 343°
2026-04-26 22:53 26.48749 49.78504 84 ft 5 kts 13°
2026-04-26 22:53 26.48777 49.78526 85 ft 4 kts 52°
2026-04-26 22:54 26.48789 49.78556 85 ft 5 kts 70°
2026-04-26 22:54 26.48797 49.78586 85 ft 0 kts 73°